Weather History for Nelson, BC

Change the Weather History Date:

Saturday, September 14, 2013

  Actual Average Record
Temperature  
Mean Temperature 70 °F -  
Max Temperature 85 °F - - ()
Min Temperature 54 °F - - ()
Cooling Degree Days 4    
Growing Degree Days 20 (Base 50)    
Moisture  
Dew Point 55 °F    
Average Humidity 65    
Maximum Humidity 90    
Minimum Humidity 31    
Precipitation  
Precipitation 0.00 in - - ()
Sea Level Pressure  
Sea Level Pressure 29.90 in    
Wind  
Wind Speed 3 mph ()    
Max Wind Speed 8 mph    
Max Gust Speed -    
T = Trace of Precipitation, MM = Missing Value Source: Averaged Metar Reports

Daily Weather History Graph

Daily Weather History Graph

Search for Another Location

Airport:

Trip Planner

Search our weather history database for the weather conditions in past years. The results will help you decide how hot, cold, wet, or windy it might be!

Date:

Astronomy

Sep. 14, 2013 Rise Set
Actual Time 6:24 AM PDT 7:03 PM PDT
Civil Twilight 5:52 AM PDT 7:35 PM PDT
Nautical Twilight 5:13 AM PDT 8:14 PM PDT
Astronomical Twilight 4:33 AM PDT 8:54 PM PDT
Moon 4:08 PM PDT (9/14) 12:38 AM PDT (9/14)
Length of Visible Light 13h 43m
Length of Day
12h 39m
Waxing Gibbous, 73% of the Moon is Illuminated
Sep 14
Waxing Gibbous
Sep 19
Full
Sep 26
Last Quarter
Oct 4
New
Oct 11
First Quarter

Hourly Weather History & Observations

Time (PDT) Temp. Heat Index Dew Point Humidity Pressure Visibility Wind Dir Wind Speed Gust Speed Precip Events Conditions
12:00 AM 59.7 °F - 54.3 °F 82% 29.84 in - South 2.3 mph - N/A   Unknown
1:00 AM 59.0 °F - 53.4 °F 82% 29.86 in - East 1.2 mph - N/A   Unknown
2:00 AM 60.4 °F - 53.8 °F 79% 29.86 in - East 2.3 mph - N/A   Unknown
3:00 AM 56.7 °F - 52.5 °F 86% 29.89 in - SSE 2.3 mph - N/A   Unknown
4:00 AM 55.8 °F - 52.0 °F 87% 29.90 in - South 1.2 mph - N/A   Unknown
5:00 AM 55 °F - 52 °F 86% 29.92 in - SSE 1.2 mph - -  
5:00 AM 54.9 °F - 52.0 °F 90% 29.92 in - SSE 1.2 mph - N/A   Unknown
6:00 AM 55.0 °F - 51.8 °F 89% 29.94 in - SSE 1.2 mph - N/A   Unknown
7:00 AM 54.9 °F - 51.8 °F 89% 29.96 in - SE 1.2 mph - N/A   Unknown
8:00 AM 58.6 °F - 53.6 °F 83% 29.97 in - ESE 3.5 mph - N/A   Unknown
9:00 AM 65.5 °F - 57.0 °F 74% 29.97 in - NE 3.5 mph - N/A   Unknown
10:00 AM 71.1 °F - 54.0 °F 55% 29.96 in - NE 5.8 mph - N/A   Unknown
11:00 AM 74 °F - 55 °F 41% 29.95 in - NE 6.9 mph - -  
11:00 AM 74.3 °F - 55.2 °F 51% 29.95 in - NE 6.9 mph - N/A   Unknown
12:00 PM 76.8 °F - 54.1 °F 45% 29.94 in - NE 6.9 mph - N/A   Unknown
1:00 PM 79.5 °F - 54.3 °F 42% 29.91 in - NE 8.1 mph - N/A   Unknown
2:00 PM 82.8 °F 81.7 °F 54.0 °F 37% 29.90 in - NNE 3.5 mph - N/A   Unknown
3:00 PM 82.8 °F 81.9 °F 54.7 °F 38% 29.88 in - NE 6.9 mph - N/A   Unknown
4:00 PM 83.7 °F 83.4 °F 58.8 °F 43% 29.87 in - NNE 4.6 mph - N/A   Unknown
5:00 PM 82 °F - 57 °F 31% 29.85 in - NE 2.3 mph - -  
5:00 PM 81.9 °F 81.6 °F 56.7 °F 42% 29.85 in - NE 2.3 mph - N/A   Unknown
6:00 PM 79.9 °F - 58.5 °F 48% 29.86 in - East 2.3 mph - N/A   Unknown
7:00 PM 72.7 °F - 59.4 °F 63% 29.86 in - East 1.2 mph - N/A   Unknown
8:00 PM 69.6 °F - 56.3 °F 63% 29.88 in - ENE 2.3 mph - N/A   Unknown
9:00 PM 66.6 °F - 59.0 °F 77% 29.89 in - NE 3.5 mph - N/A   Unknown
10:00 PM 65.3 °F - 56.3 °F 73% 29.89 in - ENE 3.5 mph - N/A   Unknown
11:00 PM 62 °F - 56 °F 75% 29.91 in - West 2.3 mph - -  
11:00 PM 62.2 °F - 55.9 °F 80% 29.91 in - West 2.3 mph - N/A   Unknown